| time (UTC) | temp C | wind direction | speed KPH | gust KPH | rain 1hr cm | rain 24hr cm | rain mn cm | humidity % | barometer mb |
| 20260509122646 | 21 | 99 | 3.2 | 0.0 | 0.00 | 0.00 | 0.00 | 42 | 1013.3 |
| 20260509122148 | 22 | 360 | 3.2 | 0.0 | 0.00 | 0.00 | 0.00 | 43 | 1013.3 |
| 20260509121650 | 22 | 92 | 1.6 | 0.0 | 0.00 | 0.00 | 0.00 | 44 | 1013.3 |
| 20260509121135 | 22 | 82 | 1.6 | 0.0 | 0.00 | 0.00 | 0.00 | 46 | 1013.5 |
| 20260509120640 | 21 | 34 | 1.6 | 0.0 | 0.00 | 0.00 | 0.00 | 43 | 1013.5 |
| 20260509120141 | 21 | 83 | 1.6 | 0.0 | 0.00 | 0.00 | 0.00 | 44 | 1013.5 |
| 20260509115640 | 21 | 360 | 0.0 | 0.0 | 0.00 | 0.00 | 0.00 | 43 | 1013.6 |
| 20260509115152 | 21 | 38 | 1.6 | 0.0 | 0.00 | 0.00 | 0.00 | 43 | 1013.6 |
| 20260509114647 | 21 | 37 | 0.0 | 0.0 | 0.00 | 0.00 | 0.00 | 45 | 1013.6 |
| 20260509114143 | 21 | 126 | 0.0 | 0.0 | 0.00 | 0.00 | 0.00 | 49 | 1013.8 |
| 20260509113636 | 20 | 360 | 0.0 | 0.0 | 0.00 | 0.00 | 0.00 | 46 | 1013.8 |
| 20260509113138 | 21 | 72 | 1.6 | 0.0 | 0.00 | 0.00 | 0.00 | 43 | 1013.8 |
| 20260509112644 | 21 | 36 | 3.2 | 0.0 | 0.00 | 0.00 | 0.00 | 46 | 1013.9 |
| 20260509112152 | 21 | 82 | 4.8 | 0.0 | 0.00 | 0.00 | 0.00 | 44 | 1013.9 |
| 20260509111638 | 21 | 72 | 3.2 | 0.0 | 0.00 | 0.00 | 0.00 | 45 | 1013.9 |
| 20260509111156 | 21 | 59 | 1.6 | 0.0 | 0.00 | 0.00 | 0.00 | 46 | 1014.0 |
| 20260509110638 | 21 | 360 | 3.2 | 0.0 | 0.00 | 0.00 | 0.00 | 45 | 1014.0 |
| 20260509110145 | 21 | 28 | 1.6 | 0.0 | 0.00 | 0.00 | 0.00 | 47 | 1014.0 |
| 20260509105640 | 20 | 50 | 1.6 | 0.0 | 0.00 | 0.00 | 0.00 | 49 | 1014.2 |
| 20260509105139 | 20 | 67 | 1.6 | 0.0 | 0.00 | 0.00 | 0.00 | 46 | 1014.2 |
| 20260509104647 | 20 | 53 | 3.2 | 0.0 | 0.00 | 0.00 | 0.00 | 46 | 1014.2 |
| 20260509104141 | 20 | 74 | 1.6 | 0.0 | 0.00 | 0.00 | 0.00 | 49 | 1014.5 |
| 20260509103636 | 21 | 72 | 1.6 | 0.0 | 0.00 | 0.00 | 0.00 | 47 | 1014.5 |
| 20260509103149 | 21 | 161 | 1.6 | 0.0 | 0.00 | 0.00 | 0.00 | 47 | 1014.5 |
| 20260509102637 | 21 | 123 | 1.6 | 0.0 | 0.00 | 0.00 | 0.00 | 45 | 1014.5 |
| 20260509102142 | 20 | 67 | 1.6 | 0.0 | 0.00 | 0.00 | 0.00 | 47 | 1014.5 |
| 20260509101639 | 20 | 269 | 1.6 | 0.0 | 0.00 | 0.00 | 0.00 | 45 | 1014.5 |
| 20260509101144 | 20 | 42 | 3.2 | 0.0 | 0.00 | 0.00 | 0.00 | 47 | 1014.6 |
| 20260509100650 | 20 | 102 | 1.6 | 0.0 | 0.00 | 0.00 | 0.00 | 47 | 1014.6 |
| 20260509100155 | 20 | 49 | 0.0 | 0.0 | 0.00 | 0.00 | 0.00 | 48 | 1014.6 |
| 20260509095638 | 20 | 127 | 1.6 | 0.0 | 0.00 | 0.00 | 0.00 | 48 | 1014.6 |
| 20260509095141 | 20 | 44 | 1.6 | 0.0 | 0.00 | 0.00 | 0.00 | 48 | 1014.6 |
| 20260509094646 | 20 | 75 | 3.2 | 0.0 | 0.00 | 0.00 | 0.00 | 47 | 1014.6 |
| 20260509094141 | 20 | 74 | 1.6 | 0.0 | 0.00 | 0.00 | 0.00 | 48 | 1014.6 |
| 20260509093649 | 20 | 360 | 1.6 | 0.0 | 0.00 | 0.00 | 0.00 | 50 | 1014.6 |
| 20260509093152 | 20 | 68 | 1.6 | 0.0 | 0.00 | 0.00 | 0.00 | 48 | 1014.6 |
| 20260509092653 | 19 | 101 | 0.0 | 0.0 | 0.00 | 0.00 | 0.00 | 52 | 1014.6 |
| 20260509092142 | 18 | 360 | 0.0 | 0.0 | 0.00 | 0.00 | 0.00 | 48 | 1014.6 |
| 20260509091644 | 19 | 115 | 1.6 | 0.0 | 0.00 | 0.00 | 0.00 | 51 | 1014.6 |
| 20260509091150 | 19 | 360 | 1.6 | 0.0 | 0.00 | 0.00 | 0.00 | 51 | 1014.6 |
| 20260509090637 | 18 | 87 | 1.6 | 0.0 | 0.00 | 0.00 | 0.00 | 53 | 1014.6 |
| 20260509090148 | 18 | 107 | 1.6 | 0.0 | 0.00 | 0.00 | 0.00 | 53 | 1014.6 |
| 20260509085654 | 18 | 92 | 1.6 | 0.0 | 0.00 | 0.00 | 0.00 | 53 | 1014.6 |
| 20260509085138 | 18 | 65 | 1.6 | 0.0 | 0.00 | 0.00 | 0.00 | 55 | 1014.6 |
| 20260509084646 | 18 | 68 | 0.0 | 0.0 | 0.00 | 0.00 | 0.00 | 54 | 1014.6 |
| 20260509084149 | 17 | 92 | 0.0 | 0.0 | 0.00 | 0.00 | 0.00 | 58 | 1014.7 |
| 20260509083655 | 17 | 96 | 0.0 | 0.0 | 0.00 | 0.00 | 0.00 | 57 | 1014.7 |
| 20260509083137 | 17 | 97 | 0.0 | 0.0 | 0.00 | 0.00 | 0.00 | 57 | 1014.7 |
| 20260509082635 | 17 | 105 | 1.6 | 0.0 | 0.00 | 0.00 | 0.00 | 60 | 1014.9 |
| 20260509082144 | 17 | 180 | 1.6 | 0.0 | 0.00 | 0.00 | 0.00 | 57 | 1014.9 |
| 20260509081651 | 16 | 156 | 1.6 | 0.0 | 0.00 | 0.00 | 0.00 | 59 | 1014.9 |
| 20260509081143 | 16 | 111 | 1.6 | 0.0 | 0.00 | 0.00 | 0.00 | 62 | 1014.7 |
| 20260509080652 | 16 | 175 | 1.6 | 0.0 | 0.00 | 0.00 | 0.00 | 62 | 1014.7 |
| 20260509080138 | 16 | 360 | 1.6 | 0.0 | 0.00 | 0.00 | 0.00 | 62 | 1014.7 |
| 20260509075642 | 16 | 201 | 0.0 | 0.0 | 0.00 | 0.00 | 0.00 | 64 | 1014.8 |
| 20260509075135 | 15 | 119 | 0.0 | 0.0 | 0.00 | 0.00 | 0.00 | 68 | 1014.8 |
| 20260509074644 | 15 | 99 | 0.0 | 0.0 | 0.00 | 0.00 | 0.00 | 71 | 1014.8 |
| 20260509074138 | 14 | 105 | 0.0 | 0.0 | 0.00 | 0.00 | 0.00 | 69 | 1014.9 |
| 20260509073644 | 14 | 105 | 1.6 | 0.0 | 0.00 | 0.00 | 0.00 | 71 | 1014.9 |
| 20260509073144 | 14 | 126 | 1.6 | 0.0 | 0.00 | 0.00 | 0.00 | 70 | 1014.9 |
| 20260509072647 | 14 | 105 | 0.0 | 0.0 | 0.00 | 0.00 | 0.00 | 72 | 1015.1 |
| 20260509072137 | 13 | 136 | 0.0 | 0.0 | 0.00 | 0.00 | 0.00 | 70 | 1015.1 |
| 20260509071643 | 13 | 83 | 0.0 | 0.0 | 0.00 | 0.00 | 0.00 | 71 | 1015.1 |
| 20260509071155 | 13 | 83 | 0.0 | 0.0 | 0.00 | 0.00 | 0.00 | 71 | 1015.1 |
| 20260509070639 | 13 | 83 | 0.0 | 0.0 | 0.00 | 0.00 | 0.00 | 72 | 1015.1 |
| 20260509070148 | 13 | 83 | 0.0 | 0.0 | 0.00 | 0.00 | 0.00 | 72 | 1015.1 |
| 20260509065650 | 13 | 83 | 0.0 | 0.0 | 0.00 | 0.00 | 0.00 | 72 | 1015.4 |
| 20260509065149 | 13 | 76 | 0.0 | 0.0 | 0.00 | 0.00 | 0.00 | 72 | 1015.4 |
| 20260509064639 | 12 | 75 | 0.0 | 0.0 | 0.00 | 0.00 | 0.00 | 73 | 1015.4 |
| 20260509064138 | 12 | 76 | 0.0 | 0.0 | 0.00 | 0.00 | 0.00 | 73 | 1015.2 |
| 20260509063640 | 12 | 76 | 0.0 | 0.0 | 0.00 | 0.00 | 0.00 | 72 | 1015.2 |
| 20260509063144 | 12 | 76 | 0.0 | 0.0 | 0.00 | 0.00 | 0.00 | 71 | 1015.2 |
| 20260509062646 | 12 | 74 | 0.0 | 0.0 | 0.00 | 0.00 | 0.00 | 71 | 1015.0 |
| 20260509062149 | 12 | 74 | 0.0 | 0.0 | 0.00 | 0.00 | 0.00 | 72 | 1015.0 |
| 20260509061650 | 12 | 74 | 0.0 | 0.0 | 0.00 | 0.00 | 0.00 | 73 | 1015.0 |
| 20260509061139 | 11 | 360 | 0.0 | 0.0 | 0.00 | 0.00 | 0.00 | 76 | 1015.0 |
| 20260509060643 | 11 | 80 | 0.0 | 0.0 | 0.00 | 0.00 | 0.00 | 77 | 1015.0 |
| 20260509060151 | 10 | 360 | 0.0 | 0.0 | 0.00 | 0.00 | 0.00 | 75 | 1015.0 |
| 20260509055640 | 10 | 79 | 0.0 | 0.0 | 0.00 | 0.00 | 0.00 | 76 | 1014.3 |
| 20260509055141 | 10 | 79 | 0.0 | 0.0 | 0.00 | 0.00 | 0.00 | 79 | 1014.3 |
| 20260509054647 | 10 | 80 | 0.0 | 0.0 | 0.00 | 0.00 | 0.00 | 77 | 1014.3 |
| 20260509054140 | 9 | 80 | 0.0 | 0.0 | 0.00 | 0.00 | 0.00 | 78 | 1014.3 |
| 20260509053642 | 9 | 80 | 0.0 | 0.0 | 0.00 | 0.00 | 0.00 | 79 | 1014.3 |
| 20260509053144 | 9 | 360 | 0.0 | 0.0 | 0.00 | 0.00 | 0.00 | 80 | 1014.3 |
| 20260509052647 | 9 | 80 | 0.0 | 0.0 | 0.00 | 0.00 | 0.00 | 80 | 1014.4 |
| 20260509052155 | 8 | 80 | 0.0 | 0.0 | 0.00 | 0.00 | 0.00 | 80 | 1014.4 |
| 20260509051653 | 8 | 80 | 0.0 | 0.0 | 0.00 | 0.00 | 0.00 | 79 | 1014.4 |
| 20260509051135 | 8 | 80 | 0.0 | 0.0 | 0.00 | 0.00 | 0.00 | 78 | 1015.0 |
| 20260509050643 | 8 | 80 | 0.0 | 0.0 | 0.00 | 0.00 | 0.00 | 78 | 1015.0 |
| 20260509050150 | 8 | 360 | 0.0 | 0.0 | 0.00 | 0.00 | 0.00 | 78 | 1015.0 |
| 20260509045653 | 8 | 80 | 0.0 | 0.0 | 0.00 | 0.00 | 0.00 | 77 | 1014.9 |
| 20260509045155 | 8 | 80 | 0.0 | 0.0 | 0.00 | 0.00 | 0.00 | 77 | 1014.9 |
| 20260509044641 | 8 | 80 | 0.0 | 0.0 | 0.00 | 0.00 | 0.00 | 77 | 1014.9 |
| 20260509044139 | 8 | 80 | 0.0 | 0.0 | 0.00 | 0.00 | 0.00 | 77 | 1014.7 |
| 20260509043639 | 8 | 80 | 0.0 | 0.0 | 0.00 | 0.00 | 0.00 | 77 | 1014.7 |
| 20260509043146 | 8 | 80 | 0.0 | 0.0 | 0.00 | 0.00 | 0.00 | 77 | 1014.7 |
| 20260509042645 | 8 | 78 | 0.0 | 0.0 | 0.00 | 0.00 | 0.00 | 77 | 1014.6 |
| 20260509042146 | 8 | 77 | 0.0 | 0.0 | 0.00 | 0.00 | 0.00 | 77 | 1014.6 |
| 20260509041648 | 8 | 41 | 0.0 | 0.0 | 0.00 | 0.00 | 0.00 | 77 | 1014.6 |
| 20260509041150 | 8 | 41 | 0.0 | 0.0 | 0.00 | 0.00 | 0.00 | 77 | 1014.5 |
| 20260509040650 | 8 | 41 | 0.0 | 0.0 | 0.00 | 0.00 | 0.00 | 77 | 1014.5 |
| 20260509040156 | 8 | 41 | 0.0 | 0.0 | 0.00 | 0.00 | 0.00 | 77 | 1014.5 |
| 20260509035644 | 8 | 40 | 0.0 | 0.0 | 0.00 | 0.00 | 0.00 | 77 | 1014.4 |
| 20260509035147 | 8 | 40 | 0.0 | 0.0 | 0.00 | 0.00 | 0.00 | 77 | 1014.4 |
| 20260509034647 | 8 | 40 | 0.0 | 0.0 | 0.00 | 0.00 | 0.00 | 77 | 1014.4 |
| 20260509034153 | 8 | 34 | 0.0 | 0.0 | 0.00 | 0.00 | 0.00 | 76 | 1014.3 |
| 20260509033657 | 8 | 5 | 0.0 | 0.0 | 0.00 | 0.00 | 0.00 | 76 | 1014.3 |
| 20260509033151 | 8 | 360 | 0.0 | 0.0 | 0.00 | 0.00 | 0.00 | 76 | 1014.3 |
| 20260509032650 | 8 | 360 | 0.0 | 0.0 | 0.00 | 0.00 | 0.00 | 76 | 1014.3 |
| 20260509032138 | 8 | 360 | 0.0 | 0.0 | 0.00 | 0.00 | 0.00 | 76 | 1014.3 |
| 20260509031643 | 8 | 360 | 0.0 | 0.0 | 0.00 | 0.00 | 0.00 | 76 | 1014.3 |
| 20260509031146 | 8 | 355 | 0.0 | 0.0 | 0.00 | 0.00 | 0.00 | 76 | 1014.6 |
| 20260509030651 | 8 | 355 | 0.0 | 0.0 | 0.00 | 0.00 | 0.00 | 76 | 1014.6 |
| 20260509030151 | 8 | 355 | 0.0 | 0.0 | 0.00 | 0.00 | 0.00 | 76 | 1014.6 |
| 20260509025645 | 8 | 355 | 0.0 | 0.0 | 0.00 | 0.00 | 0.00 | 76 | 1014.6 |
| 20260509025150 | 8 | 355 | 0.0 | 0.0 | 0.00 | 0.00 | 0.00 | 76 | 1014.6 |
| 20260509024652 | 8 | 360 | 0.0 | 0.0 | 0.00 | 0.00 | 0.00 | 76 | 1014.6 |
| 20260509024142 | 8 | 355 | 0.0 | 0.0 | 0.00 | 0.00 | 0.00 | 76 | 1014.6 |
| 20260509023648 | 8 | 360 | 0.0 | 0.0 | 0.00 | 0.00 | 0.00 | 76 | 1014.6 |
| 20260509023135 | 8 | 60 | 0.0 | 0.0 | 0.00 | 0.00 | 0.00 | 76 | 1014.6 |
| 20260509022644 | 8 | 360 | 0.0 | 0.0 | 0.00 | 0.00 | 0.00 | 75 | 1014.5 |
| 20260509022150 | 8 | 60 | 0.0 | 0.0 | 0.00 | 0.00 | 0.00 | 75 | 1014.5 |
| 20260509021640 | 8 | 61 | 0.0 | 0.0 | 0.00 | 0.00 | 0.00 | 75 | 1014.5 |
| 20260509021145 | 8 | 61 | 0.0 | 0.0 | 0.00 | 0.00 | 0.00 | 75 | 1014.4 |
| 20260509020648 | 8 | 360 | 0.0 | 0.0 | 0.00 | 0.00 | 0.00 | 75 | 1014.4 |
| 20260509020149 | 8 | 61 | 0.0 | 0.0 | 0.00 | 0.00 | 0.00 | 75 | 1014.4 |
| 20260509015655 | 8 | 360 | 0.0 | 0.0 | 0.00 | 0.00 | 0.00 | 75 | 1014.4 |
| 20260509015154 | 8 | 61 | 0.0 | 0.0 | 0.00 | 0.00 | 0.00 | 75 | 1014.4 |
| 20260509014649 | 8 | 60 | 0.0 | 0.0 | 0.00 | 0.00 | 0.00 | 75 | 1014.4 |
| 20260509014142 | 8 | 60 | 0.0 | 0.0 | 0.00 | 0.00 | 0.00 | 75 | 1014.4 |
| 20260509013645 | 8 | 61 | 0.0 | 0.0 | 0.00 | 0.00 | 0.00 | 75 | 1014.4 |
| 20260509013149 | 8 | 61 | 0.0 | 0.0 | 0.00 | 0.00 | 0.00 | 75 | 1014.4 |
| 20260509012655 | 8 | 61 | 0.0 | 0.0 | 0.00 | 0.00 | 0.00 | 74 | 1014.2 |
| 20260509012143 | 8 | 60 | 0.0 | 0.0 | 0.00 | 0.00 | 0.00 | 74 | 1014.2 |
| 20260509011649 | 8 | 60 | 0.0 | 0.0 | 0.00 | 0.00 | 0.00 | 74 | 1014.2 |
| 20260509011157 | 8 | 61 | 0.0 | 0.0 | 0.00 | 0.00 | 0.00 | 74 | 1014.2 |
| 20260509010641 | 8 | 60 | 0.0 | 0.0 | 0.00 | 0.00 | 0.00 | 74 | 1014.2 |
| 20260509010144 | 8 | 360 | 0.0 | 0.0 | 0.00 | 0.00 | 0.00 | 75 | 1014.2 |
| 20260509005650 | 8 | 61 | 0.0 | 0.0 | 0.00 | 0.00 | 0.00 | 75 | 1014.2 |
| 20260509005139 | 8 | 61 | 0.0 | 0.0 | 0.00 | 0.00 | 0.00 | 75 | 1014.2 |
| 20260509004639 | 8 | 61 | 0.0 | 0.0 | 0.00 | 0.00 | 0.00 | 75 | 1014.2 |
| 20260509004142 | 8 | 61 | 0.0 | 0.0 | 0.00 | 0.00 | 0.00 | 75 | 1014.1 |
| 20260509003643 | 8 | 61 | 0.0 | 0.0 | 0.00 | 0.00 | 0.00 | 75 | 1014.1 |
| 20260509003147 | 8 | 360 | 0.0 | 0.0 | 0.00 | 0.00 | 0.00 | 74 | 1014.1 |
| 20260509002650 | 8 | 60 | 0.0 | 0.0 | 0.00 | 0.00 | 0.00 | 73 | 1014.4 |
| 20260509002153 | 8 | 60 | 0.0 | 0.0 | 0.00 | 0.00 | 0.00 | 73 | 1014.4 |
| 20260509001645 | 8 | 60 | 0.0 | 0.0 | 0.00 | 0.00 | 0.00 | 73 | 1014.4 |
| 20260509001144 | 8 | 60 | 0.0 | 0.0 | 0.00 | 0.00 | 0.00 | 73 | 1014.5 |
| 20260509000650 | 8 | 59 | 0.0 | 0.0 | 0.00 | 0.00 | 0.00 | 72 | 1014.5 |
| 20260509000135 | 8 | 59 | 0.0 | 0.0 | 0.00 | 0.00 | 0.00 | 72 | 1014.5 |
| 20260508235638 | 8 | 59 | 0.0 | 0.0 | 0.00 | 0.00 | 0.00 | 71 | 1014.5 |
| 20260508235140 | 8 | 59 | 0.0 | 0.0 | 0.00 | 0.00 | 0.00 | 71 | 1014.5 |
| 20260508234646 | 9 | 360 | 0.0 | 0.0 | 0.00 | 0.00 | 0.00 | 71 | 1014.5 |
| 20260508234155 | 9 | 71 | 0.0 | 0.0 | 0.00 | 0.00 | 0.00 | 71 | 1014.5 |
| 20260508233657 | 9 | 59 | 0.0 | 0.0 | 0.00 | 0.00 | 0.00 | 71 | 1014.5 |
| 20260508233156 | 9 | 59 | 0.0 | 0.0 | 0.00 | 0.00 | 0.00 | 71 | 1014.5 |
| 20260508232642 | 9 | 59 | 0.0 | 0.0 | 0.00 | 0.00 | 0.00 | 71 | 1014.5 |
| 20260508232151 | 9 | 59 | 0.0 | 0.0 | 0.00 | 0.00 | 0.00 | 71 | 1014.5 |
| 20260508231649 | 9 | 59 | 0.0 | 0.0 | 0.00 | 0.00 | 0.00 | 71 | 1014.5 |
| 20260508231155 | 9 | 59 | 0.0 | 0.0 | 0.00 | 0.00 | 0.00 | 70 | 1014.8 |
| 20260508230657 | 9 | 59 | 0.0 | 0.0 | 0.00 | 0.00 | 0.00 | 70 | 1014.8 |
| 20260508230147 | 9 | 59 | 0.0 | 0.0 | 0.00 | 0.00 | 0.00 | 70 | 1014.8 |
| 20260508225638 | 10 | 59 | 0.0 | 0.0 | 0.00 | 0.00 | 0.00 | 70 | 1014.7 |
| 20260508225147 | 10 | 59 | 0.0 | 0.0 | 0.00 | 0.00 | 0.00 | 70 | 1014.7 |
| 20260508224652 | 10 | 59 | 0.0 | 0.0 | 0.00 | 0.00 | 0.00 | 70 | 1014.7 |
| 20260508224140 | 10 | 59 | 0.0 | 0.0 | 0.00 | 0.00 | 0.00 | 71 | 1014.6 |
| 20260508223641 | 10 | 360 | 0.0 | 0.0 | 0.00 | 0.00 | 0.00 | 70 | 1014.6 |
| 20260508223147 | 10 | 59 | 0.0 | 0.0 | 0.00 | 0.00 | 0.00 | 70 | 1014.6 |
| 20260508222654 | 10 | 60 | 0.0 | 0.0 | 0.00 | 0.00 | 0.00 | 70 | 1014.6 |
| 20260508222154 | 10 | 60 | 0.0 | 0.0 | 0.00 | 0.00 | 0.00 | 70 | 1014.6 |
| 20260508221640 | 10 | 60 | 0.0 | 0.0 | 0.00 | 0.00 | 0.00 | 70 | 1014.6 |
| 20260508221142 | 10 | 60 | 0.0 | 0.0 | 0.00 | 0.00 | 0.00 | 70 | 1014.6 |
| 20260508220648 | 10 | 60 | 0.0 | 0.0 | 0.00 | 0.00 | 0.00 | 69 | 1014.6 |
| 20260508220152 | 10 | 60 | 0.0 | 0.0 | 0.00 | 0.00 | 0.00 | 69 | 1014.6 |
| 20260508215636 | 10 | 60 | 0.0 | 0.0 | 0.00 | 0.00 | 0.00 | 69 | 1014.5 |
| 20260508215138 | 10 | 59 | 0.0 | 0.0 | 0.00 | 0.00 | 0.00 | 68 | 1014.5 |
| 20260508214643 | 10 | 67 | 0.0 | 0.0 | 0.00 | 0.00 | 0.00 | 68 | 1014.5 |
| 20260508214148 | 10 | 60 | 0.0 | 0.0 | 0.00 | 0.00 | 0.00 | 68 | 1014.4 |
| 20260508213650 | 10 | 60 | 0.0 | 0.0 | 0.00 | 0.00 | 0.00 | 67 | 1014.4 |
| 20260508213139 | 11 | 60 | 0.0 | 0.0 | 0.00 | 0.00 | 0.00 | 67 | 1014.4 |
| 20260508212639 | 11 | 59 | 0.0 | 0.0 | 0.00 | 0.00 | 0.00 | 67 | 1014.4 |
| 20260508212148 | 11 | 59 | 0.0 | 0.0 | 0.00 | 0.00 | 0.00 | 67 | 1014.4 |
| 20260508211652 | 11 | 59 | 0.0 | 0.0 | 0.00 | 0.00 | 0.00 | 67 | 1014.4 |
| 20260508211152 | 11 | 60 | 0.0 | 0.0 | 0.00 | 0.00 | 0.00 | 67 | 1013.7 |
| 20260508210637 | 11 | 360 | 0.0 | 0.0 | 0.00 | 0.00 | 0.00 | 67 | 1013.7 |
| 20260508210141 | 11 | 63 | 0.0 | 0.0 | 0.00 | 0.00 | 0.00 | 66 | 1013.7 |
| 20260508205645 | 11 | 60 | 0.0 | 0.0 | 0.00 | 0.00 | 0.00 | 66 | 1013.7 |
| 20260508205145 | 11 | 60 | 0.0 | 0.0 | 0.00 | 0.00 | 0.00 | 66 | 1013.7 |
| 20260508204655 | 11 | 60 | 0.0 | 0.0 | 0.00 | 0.00 | 0.00 | 66 | 1013.7 |
| 20260508204137 | 11 | 60 | 0.0 | 0.0 | 0.00 | 0.00 | 0.00 | 65 | 1013.6 |
| 20260508203648 | 12 | 60 | 0.0 | 0.0 | 0.00 | 0.00 | 0.00 | 65 | 1013.6 |
| 20260508203143 | 12 | 61 | 0.0 | 0.0 | 0.00 | 0.00 | 0.00 | 65 | 1013.6 |
| 20260508202639 | 12 | 360 | 0.0 | 0.0 | 0.00 | 0.00 | 0.00 | 64 | 1014.3 |
| 20260508202153 | 12 | 360 | 0.0 | 0.0 | 0.00 | 0.00 | 0.00 | 63 | 1014.3 |
| 20260508201639 | 12 | 360 | 0.0 | 0.0 | 0.00 | 0.00 | 0.00 | 63 | 1014.3 |
| 20260508201155 | 12 | 61 | 0.0 | 0.0 | 0.00 | 0.00 | 0.00 | 63 | 1013.5 |
| 20260508200654 | 12 | 64 | 0.0 | 0.0 | 0.00 | 0.00 | 0.00 | 63 | 1013.5 |
| 20260508200140 | 12 | 64 | 0.0 | 0.0 | 0.00 | 0.00 | 0.00 | 63 | 1013.5 |
| 20260508195645 | 12 | 64 | 0.0 | 0.0 | 0.00 | 0.00 | 0.00 | 63 | 1013.2 |
| 20260508195152 | 13 | 69 | 0.0 | 0.0 | 0.00 | 0.00 | 0.00 | 62 | 1013.2 |
| 20260508194636 | 13 | 69 | 0.0 | 0.0 | 0.00 | 0.00 | 0.00 | 62 | 1013.2 |
| 20260508194142 | 13 | 57 | 0.0 | 0.0 | 0.00 | 0.00 | 0.00 | 62 | 1013.2 |
| 20260508193638 | 13 | 49 | 0.0 | 0.0 | 0.00 | 0.00 | 0.00 | 61 | 1013.2 |
| 20260508193140 | 13 | 49 | 0.0 | 0.0 | 0.00 | 0.00 | 0.00 | 61 | 1013.2 |
| 20260508192649 | 13 | 48 | 0.0 | 0.0 | 0.00 | 0.00 | 0.00 | 61 | 1013.6 |
| 20260508192152 | 13 | 55 | 0.0 | 0.0 | 0.00 | 0.00 | 0.00 | 60 | 1013.6 |
| 20260508191655 | 14 | 57 | 0.0 | 0.0 | 0.00 | 0.00 | 0.00 | 60 | 1013.6 |
| 20260508191140 | 14 | 59 | 0.0 | 0.0 | 0.00 | 0.00 | 0.00 | 60 | 1012.8 |
| 20260508190649 | 14 | 67 | 0.0 | 0.0 | 0.00 | 0.00 | 0.00 | 59 | 1012.8 |
| 20260508190145 | 14 | 82 | 0.0 | 0.0 | 0.00 | 0.00 | 0.00 | 59 | 1012.8 |
| 20260508185647 | 15 | 57 | 0.0 | 0.0 | 0.00 | 0.00 | 0.00 | 59 | 1012.7 |
| 20260508185152 | 15 | 54 | 0.0 | 0.0 | 0.00 | 0.00 | 0.00 | 58 | 1012.7 |
| 20260508184655 | 15 | 53 | 0.0 | 0.0 | 0.00 | 0.00 | 0.00 | 58 | 1012.7 |
| 20260508184155 | 15 | 59 | 0.0 | 0.0 | 0.00 | 0.00 | 0.00 | 58 | 1012.6 |
| 20260508183640 | 15 | 64 | 0.0 | 0.0 | 0.00 | 0.00 | 0.00 | 58 | 1012.6 |
| 20260508183143 | 15 | 60 | 0.0 | 0.0 | 0.00 | 0.00 | 0.00 | 57 | 1012.6 |
| 20260508182646 | 15 | 69 | 0.0 | 0.0 | 0.00 | 0.00 | 0.00 | 57 | 1012.2 |
| 20260508182154 | 15 | 67 | 0.0 | 0.0 | 0.00 | 0.00 | 0.00 | 57 | 1012.2 |
| 20260508181640 | 15 | 42 | 1.6 | 0.0 | 0.00 | 0.00 | 0.00 | 57 | 1012.2 |
| 20260508181138 | 16 | 82 | 1.6 | 0.0 | 0.00 | 0.00 | 0.00 | 56 | 1012.3 |
| 20260508180641 | 16 | 78 | 1.6 | 0.0 | 0.00 | 0.00 | 0.00 | 56 | 1012.3 |
| 20260508180150 | 16 | 53 | 1.6 | 0.0 | 0.00 | 0.00 | 0.00 | 55 | 1012.3 |
| 20260508175649 | 16 | 67 | 1.6 | 0.0 | 0.00 | 0.00 | 0.00 | 55 | 1012.0 |
| 20260508175149 | 16 | 73 | 1.6 | 0.0 | 0.00 | 0.00 | 0.00 | 55 | 1012.0 |
| 20260508174638 | 16 | 68 | 3.2 | 0.0 | 0.00 | 0.00 | 0.00 | 54 | 1012.0 |
| 20260508174142 | 16 | 71 | 3.2 | 0.0 | 0.00 | 0.00 | 0.00 | 54 | 1011.9 |
| 20260508173649 | 16 | 62 | 1.6 | 0.0 | 0.00 | 0.00 | 0.00 | 54 | 1011.9 |
| 20260508173152 | 16 | 15 | 1.6 | 0.0 | 0.00 | 0.00 | 0.00 | 53 | 1011.9 |
| 20260508172657 | 16 | 60 | 1.6 | 0.0 | 0.00 | 0.00 | 0.00 | 53 | 1011.7 |
| 20260508172158 | 17 | 86 | 3.2 | 0.0 | 0.00 | 0.00 | 0.00 | 53 | 1011.7 |
| 20260508171640 | 17 | 86 | 4.8 | 0.0 | 0.00 | 0.00 | 0.00 | 51 | 1011.7 |
| 20260508171143 | 17 | 42 | 3.2 | 0.0 | 0.00 | 0.00 | 0.00 | 51 | 1011.9 |
| 20260508170649 | 17 | 63 | 1.6 | 0.0 | 0.00 | 0.00 | 0.00 | 51 | 1011.9 |
| 20260508170153 | 17 | 17 | 1.6 | 0.0 | 0.00 | 0.00 | 0.00 | 52 | 1011.9 |
| 20260508165654 | 17 | 14 | 3.2 | 0.0 | 0.00 | 0.00 | 0.00 | 51 | 1011.7 |
| 20260508165141 | 17 | 22 | 3.2 | 0.0 | 0.00 | 0.00 | 0.00 | 50 | 1011.7 |
| 20260508164644 | 18 | 60 | 3.2 | 0.0 | 0.00 | 0.00 | 0.00 | 50 | 1011.7 |
| 20260508164150 | 18 | 38 | 1.6 | 0.0 | 0.00 | 0.00 | 0.00 | 50 | 1011.8 |
| 20260508163655 | 18 | 63 | 1.6 | 0.0 | 0.00 | 0.00 | 0.00 | 49 | 1011.8 |
| 20260508163157 | 18 | 96 | 1.6 | 0.0 | 0.00 | 0.00 | 0.00 | 50 | 1011.8 |
| 20260508162639 | 18 | 103 | 3.2 | 0.0 | 0.00 | 0.00 | 0.00 | 49 | 1011.7 |
| 20260508162144 | 18 | 66 | 3.2 | 0.0 | 0.00 | 0.00 | 0.00 | 49 | 1011.7 |
| 20260508161649 | 18 | 54 | 3.2 | 0.0 | 0.00 | 0.00 | 0.00 | 49 | 1011.7 |
| 20260508161155 | 18 | 90 | 3.2 | 0.0 | 0.00 | 0.00 | 0.00 | 48 | 1011.9 |
| 20260508160643 | 19 | 15 | 1.6 | 0.0 | 0.00 | 0.00 | 0.00 | 47 | 1011.9 |
| 20260508160151 | 20 | 360 | 1.6 | 0.0 | 0.00 | 0.00 | 0.00 | 48 | 1011.9 |
| 20260508155654 | 19 | 360 | 1.6 | 0.0 | 0.00 | 0.00 | 0.00 | 49 | 1011.9 |
| 20260508155157 | 20 | 67 | 3.2 | 0.0 | 0.00 | 0.00 | 0.00 | 48 | 1011.9 |
| 20260508154647 | 20 | 104 | 6.4 | 0.0 | 0.00 | 0.00 | 0.00 | 48 | 1011.9 |
| 20260508154139 | 19 | 92 | 6.4 | 0.0 | 0.00 | 0.00 | 0.00 | 48 | 1011.8 |
| 20260508153645 | 20 | 98 | 1.6 | 0.0 | 0.00 | 0.00 | 0.00 | 48 | 1011.8 |
| 20260508153152 | 20 | 69 | 1.6 | 0.0 | 0.00 | 0.00 | 0.00 | 47 | 1011.8 |
| 20260508152643 | 19 | 60 | 1.6 | 0.0 | 0.00 | 0.00 | 0.00 | 47 | 1012.1 |
| 20260508152147 | 19 | 56 | 0.0 | 0.0 | 0.00 | 0.00 | 0.00 | 49 | 1012.1 |
| 20260508151656 | 18 | 90 | 1.6 | 0.0 | 0.00 | 0.00 | 0.00 | 50 | 1012.1 |
| 20260508151143 | 18 | 89 | 1.6 | 0.0 | 0.00 | 0.00 | 0.00 | 49 | 1012.2 |
| 20260508150641 | 18 | 335 | 0.0 | 0.0 | 0.00 | 0.00 | 0.00 | 49 | 1012.2 |
| 20260508150144 | 17 | 68 | 0.0 | 0.0 | 0.00 | 0.00 | 0.00 | 51 | 1012.2 |
| 20260508145651 | 17 | 46 | 1.6 | 0.0 | 0.00 | 0.00 | 0.00 | 51 | 1012.2 |
| 20260508145153 | 17 | 32 | 3.2 | 0.0 | 0.00 | 0.00 | 0.00 | 50 | 1012.2 |
| 20260508144655 | 18 | 66 | 4.8 | 0.0 | 0.00 | 0.00 | 0.00 | 49 | 1012.2 |
| 20260508144156 | 18 | 43 | 3.2 | 0.0 | 0.00 | 0.00 | 0.00 | 49 | 1012.1 |
| 20260508143641 | 18 | 36 | 3.2 | 0.0 | 0.00 | 0.00 | 0.00 | 49 | 1012.1 |
| 20260508143152 | 19 | 55 | 1.6 | 0.0 | 0.00 | 0.00 | 0.00 | 48 | 1012.1 |
| 20260508142654 | 20 | 53 | 1.6 | 0.0 | 0.00 | 0.00 | 0.00 | 48 | 1012.3 |
| 20260508142159 | 19 | 95 | 1.6 | 0.0 | 0.00 | 0.00 | 0.00 | 49 | 1012.3 |
| 20260508141642 | 19 | 56 | 1.6 | 0.0 | 0.00 | 0.00 | 0.00 | 49 | 1012.3 |
| 20260508141147 | 18 | 10 | 1.6 | 0.0 | 0.00 | 0.00 | 0.00 | 49 | 1012.2 |
| 20260508140652 | 19 | 53 | 1.6 | 0.0 | 0.00 | 0.00 | 0.00 | 48 | 1012.2 |
| 20260508140158 | 19 | 10 | 1.6 | 0.0 | 0.00 | 0.00 | 0.00 | 50 | 1012.2 |
| 20260508135650 | 20 | 30 | 3.2 | 0.0 | 0.00 | 0.00 | 0.00 | 48 | 1012.3 |
| 20260508135141 | 20 | 69 | 3.2 | 0.0 | 0.00 | 0.00 | 0.00 | 47 | 1012.3 |
| 20260508134646 | 19 | 56 | 1.6 | 0.0 | 0.00 | 0.00 | 0.00 | 50 | 1012.3 |
| 20260508134154 | 18 | 360 | 1.6 | 0.0 | 0.00 | 0.00 | 0.00 | 50 | 1012.6 |
| 20260508133645 | 19 | 15 | 1.6 | 0.0 | 0.00 | 0.00 | 0.00 | 47 | 1012.6 |
| 20260508133149 | 19 | 61 | 1.6 | 0.0 | 0.00 | 0.00 | 0.00 | 51 | 1012.6 |
| 20260508132654 | 18 | 18 | 3.2 | 0.0 | 0.00 | 0.00 | 0.00 | 50 | 1012.4 |
| 20260508132157 | 18 | 26 | 3.2 | 0.0 | 0.00 | 0.00 | 0.00 | 50 | 1012.4 |
| 20260508131658 | 19 | 45 | 3.2 | 0.0 | 0.00 | 0.00 | 0.00 | 53 | 1012.4 |
| 20260508131200 | 18 | 75 | 1.6 | 0.0 | 0.00 | 0.00 | 0.00 | 53 | 1012.9 |
| 20260508130644 | 18 | 32 | 1.6 | 0.0 | 0.00 | 0.00 | 0.00 | 51 | 1012.9 |
| 20260508130153 | 18 | 35 | 1.6 | 0.0 | 0.00 | 0.00 | 0.00 | 52 | 1012.9 |
| 20260508125638 | 17 | 360 | 3.2 | 0.0 | 0.00 | 0.00 | 0.00 | 54 | 1012.9 |
| 20260508125147 | 17 | 61 | 3.2 | 0.0 | 0.00 | 0.00 | 0.00 | 51 | 1012.9 |
| 20260508124649 | 18 | 60 | 1.6 | 0.0 | 0.00 | 0.00 | 0.00 | 52 | 1012.9 |
| 20260508124143 | 18 | 57 | 1.6 | 0.0 | 0.00 | 0.00 | 0.00 | 52 | 1012.9 |
| 20260508123652 | 18 | 340 | 1.6 | 0.0 | 0.00 | 0.00 | 0.00 | 52 | 1012.9 |
| 20260508123158 | 18 | 86 | 1.6 | 0.0 | 0.00 | 0.00 | 0.00 | 52 | 1012.9 |